FW0052 Weather Reports


Display with metric or nautical units.
time (UTC)temp
F
wind
direction
speed
MPH
gust
MPH
rain 1hr
in
rain 24hr
in
rain mn
in
humidity
%
barometer
mb
20260506090017 42 324 0.0 4.0 0.00 0.03 0.00 80 1006.0
20260506083017 45 290 0.0 6.0 0.00 0.03 0.00 77 1006.0
20260506073016 47 342 1.0 5.0 0.00 0.03 0.00 77 1006.0
20260506050157 56 10 6.0 13.0 0.00 0.03 0.03 62 1004.8
20260506043018 59 341 3.0 21.0 0.00 0.03 0.03 47 1004.1
20260506040056 61 232 7.0 21.0 0.00 0.03 0.03 42 1003.1
20260506033119 56 264 3.0 17.0 0.00 0.03 0.03 59 1002.4
20260506030017 56 148 1.0 11.0 0.00 0.03 0.03 65 1001.8
20260506023016 57 162 1.0 11.0 0.00 0.03 0.03 61 1001.5
20260506020016 59 300 1.0 6.0 0.00 0.03 0.03 58 1001.2
20260506013016 61 10 1.0 11.0 0.00 0.03 0.03 56 1000.4
20260506010015 61 6 5.0 12.0 0.00 0.03 0.03 57 1000.2
20260506003015 62 7 7.0 18.0 0.00 0.03 0.03 54 1000.1
20260506000018 63 13 9.0 19.0 0.00 0.03 0.03 55 999.9
20260505233015 63 1 9.0 19.0 0.00 0.03 0.03 56 1000.0
20260505230016 63 359 10.0 23.0 0.00 0.03 0.03 58 1000.1
20260505223016 62 337 10.0 26.0 0.00 0.03 0.03 60 1000.3
20260505220016 64 336 13.0 26.0 0.00 0.03 0.03 58 1000.5
20260505213035 66 356 7.0 20.0 0.00 0.03 0.03 56 1000.0
20260505210015 66 333 10.0 23.0 0.00 0.03 0.03 55 1000.3
20260505203018 64 320 12.0 23.0 0.00 0.03 0.03 59 1000.8
20260505200015 63 342 9.0 21.0 0.02 0.02 0.02 66 1000.8
20260505193015 64 339 6.0 16.0 0.02 0.02 0.02 58 1001.1
20260505190036 66 107 8.0 17.0 0.00 0.00 0.00 57 1001.3
20260505183015 61 123 9.0 17.0 0.00 0.00 0.00 62 1001.7
20260505180015 60 122 4.0 12.0 0.00 0.00 0.00 67 1002.1
20260505173015 58 7 4.0 11.0 0.00 0.00 0.00 72 1002.1
20260505170017 57 133 1.0 8.0 0.00 0.00 0.00 74 1002.2
20260505163017 57 202 3.0 9.0 0.00 0.00 0.00 72 1002.2
20260505153037 59 195 1.0 7.0 0.00 0.00 0.00 58 1002.5
20260505123016 58 212 1.0 7.0 0.00 0.00 0.00 54 1002.3
20260505120016 58 208 3.0 7.0 0.00 0.00 0.00 54 1002.3
20260505113056 58 219 2.0 6.0 0.00 0.00 0.00 53 1002.5
20260505100038 58 101 0.0 3.0 0.00 0.00 0.00 54 1002.7
20260505093016 59 89 1.0 4.0 0.00 0.00 0.00 51 1003.1